,,,PA_Meas_PMT16A,,PR_Meas_QMR101_102,,RH_Meas_QMH101,,SR_Meas_QMS101,,TA_Meas_QMH101,,GenWind,,GenWind,
date,time,status,PA,status,PR,status,RH,status,SR,status,TA,status,DirAvg,status,SpdAvg,
2009-05-30, 00:00:05,VALID,1005.07,VALID,0,VALID,92.2179,VALID,0.100563,VALID,25.0079,VALID,9,VALID,0.270312,
2009-05-30, 00:01:05,VALID,1005.07,VALID,0,VALID,92.2027,VALID,0,VALID,24.9885,VALID,23,VALID,0.278906,
2009-05-30, 00:02:05,VALID,1005.04,VALID,0,VALID,92.2179,VALID,0,VALID,24.9476,VALID,23,VALID,0.182812,
2009-05-30, 00:03:05,VALID,1005.03,VALID,0,VALID,92.2866,VALID,0,VALID,24.9495,VALID,23,VALID,0.555469,
2009-05-30, 00:04:05,VALID,1005.04,VALID,0,VALID,92.2866,VALID,0,VALID,24.9495,VALID,25,VALID,0.463672,
2009-05-30, 00:05:05,VALID,1005.02,VALID,0,VALID,92.2637,VALID,0,VALID,24.9282,VALID,27,VALID,0.471875,
2009-05-30, 00:06:05,VALID,1004.95,VALID,0,VALID,92.2713,VALID,0,VALID,24.93,VALID,27,VALID,0.354297,
2009-05-30, 00:07:05,VALID,1004.94,VALID,0,VALID,92.2713,VALID,0,VALID,24.9106,VALID,27,VALID,0.376563,
2009-05-30, 00:08:05,VALID,1004.93,VALID,0,VALID,92.34,VALID,0,VALID,24.9106,VALID,27,VALID,0.292969,
2009-05-30, 00:09:05,VALID,1004.91,VALID,0,VALID,92.3323,VALID,0,VALID,24.8892,VALID,27,VALID,0.289844,
2009-05-30, 00:10:05,VALID,1004.88,VALID,0,VALID,92.3705,VALID,0,VALID,24.8911,VALID,27,VALID,0.376172,
2009-05-30, 00:11:05,VALID,1004.88,VALID,0,VALID,92.4086,VALID,0,VALID,24.9106,VALID,27,VALID,0.463672,
2009-05-30, 00:12:05,VALID,1004.88,VALID,0,VALID,92.3934,VALID,0.100563,VALID,24.8697,VALID,27,VALID,0.507813,
2009-05-30, 00:13:05,VALID,1004.87,VALID,0,VALID,92.3857,VALID,0,VALID,24.8503,VALID,27,VALID,0.55,
2009-05-30, 00:14:05,VALID,1004.83,VALID,0,VALID,92.4544,VALID,0,VALID,24.8716,VALID,25,VALID,0.430078,
2009-05-30, 00:15:05,VALID,1004.85,VALID,0,VALID,92.5231,VALID,0,VALID,24.8522,VALID,25,VALID,0.415625,
2009-05-30, 00:16:05,VALID,1004.84,VALID,0,VALID,92.5612,VALID,0,VALID,24.8308,VALID,25,VALID,0.225391,
2009-05-30, 00:17:05,VALID,1004.82,VALID,0,VALID,92.5383,VALID,0,VALID,24.8522,VALID,25,VALID,0.117188,
2009-05-30, 00:18:05,VALID,1004.78,VALID,0,VALID,92.5536,VALID,0,VALID,24.8308,VALID,25,VALID,0.0441406,
2009-05-30, 00:19:05,VALID,1004.79,VALID,0,VALID,92.5612,VALID,0,VALID,24.8308,VALID,25,VALID,0.175391,
2009-05-30, 00:20:05,VALID,1004.78,VALID,0,VALID,92.5612,VALID,0,VALID,24.8308,VALID,25,VALID,0.221875,
2009-05-30, 00:21:05,VALID,1004.76,VALID,0,VALID,92.546,VALID,0,VALID,24.8522,VALID,26,VALID,0.360156,
2009-05-30, 00:22:05,VALID,1004.75,VALID,0,VALID,92.5765,VALID,0,VALID,24.8503,VALID,42,VALID,0.21875,
2009-05-30, 00:23:05,VALID,1004.78,VALID,0,VALID,92.5307,VALID,0,VALID,24.8503,VALID,42,VALID,0.136719,
2009-05-30, 00:24:05,VALID,1004.77,VALID,0,VALID,92.5612,VALID,0.100563,VALID,24.8716,VALID,42,VALID,0.364062,
2009-05-30, 00:25:05,VALID,1004.74,VALID,0,VALID,92.546,VALID,0,VALID,24.8697,VALID,57,VALID,0.258203,
2009-05-30, 00:26:05,VALID,1004.74,VALID,0,VALID,92.5307,VALID,0,VALID,24.8697,VALID,57,VALID,0.333594,
2009-05-30, 00:27:05,VALID,1004.72,VALID,0,VALID,92.5078,VALID,0,VALID,24.8716,VALID,57,VALID,0.438281,
2009-05-30, 00:28:05,VALID,1004.72,VALID,0,VALID,92.462,VALID,0,VALID,24.8503,VALID,56,VALID,0.503906,
2009-05-30, 00:29:05,VALID,1004.71,VALID,0,VALID,92.4391,VALID,0,VALID,24.8503,VALID,56,VALID,0.433203,
2009-05-30, 00:30:05,VALID,1004.7,VALID,0,VALID,92.4315,VALID,0,VALID,24.8503,VALID,56,VALID,0.253125,
2009-05-30, 00:31:05,VALID,1004.64,VALID,0,VALID,92.3629,VALID,0,VALID,24.8308,VALID,43,VALID,0.578125,
2009-05-30, 00:32:05,VALID,1004.64,VALID,0,VALID,92.3781,VALID,0.100563,VALID,24.8308,VALID,43,VALID,0.335938,
2009-05-30, 00:33:05,VALID,1004.62,VALID,0,VALID,92.34,VALID,0,VALID,24.8327,VALID,43,VALID,0.351563,
2009-05-30, 00:34:05,VALID,1004.61,VALID,0,VALID,92.3018,VALID,0,VALID,24.8327,VALID,43,VALID,0.330078,
2009-05-30, 00:35:05,VALID,1004.58,VALID,0,VALID,92.2789,VALID,0,VALID,24.7724,VALID,43,VALID,0.0199219,
2009-05-30, 00:36:05,VALID,1004.58,VALID,0,VALID,92.3476,VALID,0,VALID,24.7937,VALID,43,VALID,0,
2009-05-30, 00:37:05,VALID,1004.58,VALID,0,VALID,92.3934,VALID,0,VALID,24.7724,VALID,43,VALID,0.188281,
2009-05-30, 00:38:04,VALID,1004.55,VALID,0,VALID,92.4697,VALID,0,VALID,24.7529,VALID,43,VALID,0.184766,
2009-05-30, 00:39:04,VALID,1004.51,VALID,0,VALID,92.4773,VALID,0,VALID,24.7724,VALID,43,VALID,0.0558594,
2009-05-30, 00:40:04,VALID,1004.53,VALID,0,VALID,92.546,VALID,0.100563,VALID,24.7937,VALID,43,VALID,0.0640625,
2009-05-30, 00:41:04,VALID,1004.54,VALID,0,VALID,92.4925,VALID,0,VALID,24.7937,VALID,43,VALID,0.417188,
2009-05-30, 00:42:04,VALID,1004.52,VALID,0,VALID,92.4086,VALID,0,VALID,24.7743,VALID,43,VALID,0.488281,
2009-05-30, 00:43:04,VALID,1004.52,VALID,0,VALID,92.3705,VALID,0,VALID,24.714,VALID,43,VALID,0.554688,
2009-05-30, 00:44:04,VALID,1004.5,VALID,0,VALID,92.5536,VALID,0,VALID,24.7159,VALID,32,VALID,0.560938,
2009-05-30, 00:45:04,VALID,1004.48,VALID,0,VALID,92.4849,VALID,0,VALID,24.7159,VALID,20,VALID,0.418359,
2009-05-30, 00:46:04,VALID,1004.46,VALID,0,VALID,92.4773,VALID,0,VALID,24.6556,VALID,20,VALID,0.409766,
2009-05-30, 00:47:04,VALID,1004.46,VALID,0,VALID,92.5383,VALID,0,VALID,24.6166,VALID,20,VALID,0.139844,
2009-05-30, 00:48:04,VALID,1004.48,VALID,0,VALID,92.7062,VALID,0,VALID,24.638,VALID,20,VALID,0.466797,
2009-05-30, 00:49:04,VALID,1004.46,VALID,0,VALID,92.7519,VALID,0,VALID,24.6361,VALID,20,VALID,0.108203,
2009-05-30, 00:50:04,VALID,1004.45,VALID,0,VALID,92.7824,VALID,0,VALID,24.6574,VALID,23,VALID,0.408984,
2009-05-30, 00:51:04,VALID,1004.47,VALID,0,VALID,92.8664,VALID,0,VALID,24.6556,VALID,32,VALID,0.708203,
2009-05-30, 00:52:04,VALID,1004.46,VALID,0,VALID,92.7672,VALID,0,VALID,24.6556,VALID,32,VALID,0.590625,
2009-05-30, 00:53:04,VALID,1004.47,VALID,0,VALID,92.7824,VALID,0,VALID,24.6361,VALID,32,VALID,0.353906,
2009-05-30, 00:54:04,VALID,1004.5,VALID,0,VALID,92.7519,VALID,0,VALID,24.6574,VALID,32,VALID,0.391016,
2009-05-30, 00:55:04,VALID,1004.51,VALID,0,VALID,92.7672,VALID,0,VALID,24.638,VALID,33,VALID,0.244531,
2009-05-30, 00:56:04,VALID,1004.53,VALID,0,VALID,92.813,VALID,0,VALID,24.5972,VALID,33,VALID,0.282813,
2009-05-30, 00:57:04,VALID,1004.51,VALID,0,VALID,92.8435,VALID,0,VALID,24.5972,VALID,33,VALID,0,
2009-05-30, 00:58:04,VALID,1004.49,VALID,0,VALID,92.8511,VALID,0,VALID,24.5972,VALID,75,VALID,0.457812,
2009-05-30, 00:59:04,VALID,1004.48,VALID,0,VALID,92.8816,VALID,0,VALID,24.5777,VALID,76,VALID,0.346094,
2009-05-30, 01:00:04,VALID,1004.44,VALID,0,VALID,92.9426,VALID,0.100563,VALID,24.5972,VALID,76,VALID,0.300391,
2009-05-30, 01:01:04,VALID,1004.46,VALID,0,VALID,92.9579,VALID,0,VALID,24.5777,VALID,76,VALID,0.359375,
2009-05-30, 01:02:04,VALID,1004.42,VALID,0,VALID,93.0113,VALID,0.100563,VALID,24.5582,VALID,76,VALID,0.325,
2009-05-30, 01:03:04,VALID,1004.38,VALID,0,VALID,92.9426,VALID,0,VALID,24.5601,VALID,76,VALID,0.327344,
2009-05-30, 01:04:04,VALID,1004.35,VALID,0,VALID,92.9121,VALID,0.100563,VALID,24.4998,VALID,76,VALID,0.288281,
2009-05-30, 01:05:04,VALID,1004.35,VALID,0,VALID,93.0571,VALID,0.100563,VALID,24.4998,VALID,76,VALID,0.185547,
2009-05-30, 01:06:04,VALID,1004.29,VALID,0,VALID,93.141,VALID,0,VALID,24.5212,VALID,76,VALID,0.162891,
2009-05-30, 01:07:04,VALID,1004.27,VALID,0,VALID,93.1639,VALID,0,VALID,24.4998,VALID,76,VALID,0.233984,
2009-05-30, 01:08:04,VALID,1004.26,VALID,0,VALID,93.1486,VALID,0.100563,VALID,24.4998,VALID,76,VALID,0,
2009-05-30, 01:09:04,VALID,1004.24,VALID,0,VALID,93.2783,VALID,0,VALID,24.5193,VALID,76,VALID,0.111719,
2009-05-30, 01:10:04,VALID,1004.21,VALID,0,VALID,93.2631,VALID,0.100563,VALID,24.5193,VALID,76,VALID,0.227344,
2009-05-30, 01:11:04,VALID,1004.22,VALID,0,VALID,93.2859,VALID,0,VALID,24.5425,VALID,76,VALID,0.230859,
2009-05-30, 01:12:04,VALID,1004.19,VALID,0,VALID,93.2859,VALID,0,VALID,24.5212,VALID,76,VALID,0.276172,
2009-05-30, 01:13:04,VALID,1004.2,VALID,0,VALID,93.347,VALID,0,VALID,24.5406,VALID,76,VALID,0.288672,
2009-05-30, 01:14:04,VALID,1004.18,VALID,0,VALID,93.3241,VALID,0,VALID,24.5406,VALID,76,VALID,0.155078,
2009-05-30, 01:15:04,VALID,1004.19,VALID,0,VALID,93.3546,VALID,0,VALID,24.5406,VALID,76,VALID,0.148828,
2009-05-30, 01:16:04,VALID,1004.15,VALID,0,VALID,93.2631,VALID,0,VALID,24.5212,VALID,76,VALID,0.309766,
2009-05-30, 01:17:04,VALID,1004.15,VALID,0,VALID,93.2631,VALID,0,VALID,24.4822,VALID,76,VALID,0.0277344,
2009-05-30, 01:18:04,VALID,1004.19,VALID,0,VALID,93.5301,VALID,0,VALID,24.5406,VALID,50,VALID,0.430469,
2009-05-30, 01:19:04,VALID,1004.2,VALID,0,VALID,93.5148,VALID,0,VALID,24.5796,VALID,44,VALID,0.542578,
2009-05-30, 01:20:04,VALID,1004.17,VALID,0,VALID,93.5148,VALID,0,VALID,24.6185,VALID,44,VALID,0.170312,
2009-05-30, 01:21:04,VALID,1004.19,VALID,0,VALID,93.4767,VALID,0,VALID,24.638,VALID,44,VALID,0.377734,
2009-05-30, 01:22:04,VALID,1004.2,VALID,0,VALID,93.2783,VALID,0,VALID,24.6185,VALID,44,VALID,0.262891,
2009-05-30, 01:23:04,VALID,1004.17,VALID,0,VALID,93.2554,VALID,0,VALID,24.638,VALID,44,VALID,0.276953,
2009-05-30, 01:24:04,VALID,1004.16,VALID,0,VALID,93.2554,VALID,0,VALID,24.638,VALID,44,VALID,0.342578,
2009-05-30, 01:25:04,VALID,1004.14,VALID,0,VALID,93.3546,VALID,0,VALID,24.6574,VALID,44,VALID,0.442187,
2009-05-30, 01:26:04,VALID,1004.12,VALID,0,VALID,93.3165,VALID,0,VALID,24.6556,VALID,44,VALID,0.367578,
2009-05-30, 01:27:04,VALID,1004.09,VALID,0,VALID,93.5453,VALID,0,VALID,24.7353,VALID,53,VALID,0.488281,
2009-05-30, 01:28:04,VALID,1004.08,VALID,0,VALID,93.4462,VALID,0,VALID,24.8132,VALID,53,VALID,0.251953,
2009-05-30, 01:29:04,VALID,1004.07,VALID,0,VALID,93.2631,VALID,0,VALID,24.8132,VALID,53,VALID,0.163281,
2009-05-30, 01:30:04,VALID,1004.05,VALID,0,VALID,93.1257,VALID,0,VALID,24.8346,VALID,53,VALID,0.391016,
2009-05-30, 01:31:04,VALID,1004.09,VALID,0,VALID,93.0266,VALID,0,VALID,24.8327,VALID,53,VALID,0.440625,
2009-05-30, 01:32:04,VALID,1004.09,VALID,0,VALID,92.9426,VALID,0,VALID,24.8132,VALID,50,VALID,0.451172,
2009-05-30, 01:33:04,VALID,1004.07,VALID,0,VALID,92.813,VALID,0,VALID,24.7937,VALID,50,VALID,0.419531,
2009-05-30, 01:34:04,VALID,1004.09,VALID,0,VALID,92.7748,VALID,0,VALID,24.7724,VALID,49,VALID,0.408594,
2009-05-30, 01:35:04,VALID,1004.05,VALID,0,VALID,92.9732,VALID,0,VALID,24.8132,VALID,9,VALID,0.350781,
2009-05-30, 01:36:04,VALID,1004.04,VALID,0,VALID,92.8816,VALID,0,VALID,24.854,VALID,9,VALID,0.450391,
2009-05-30, 01:37:04,VALID,1004.05,VALID,0,VALID,92.7824,VALID,0,VALID,24.8735,VALID,11,VALID,0.409766,
2009-05-30, 01:38:04,VALID,1004.02,VALID,0,VALID,92.6985,VALID,0,VALID,24.8327,VALID,11,VALID,0.217187,
2009-05-30, 01:39:04,VALID,1003.99,VALID,0,VALID,92.7138,VALID,0,VALID,24.8522,VALID,11,VALID,0.338672,
2009-05-30, 01:40:04,VALID,1003.98,VALID,0,VALID,92.7443,VALID,0,VALID,24.8716,VALID,79,VALID,0.595312,
2009-05-30, 01:41:04,VALID,1003.96,VALID,0,VALID,92.6985,VALID,0,VALID,24.9106,VALID,49,VALID,0.526953,
2009-05-30, 01:42:04,VALID,1003.93,VALID,0,VALID,92.6909,VALID,0.100563,VALID,24.9282,VALID,48,VALID,0.548828,
2009-05-30, 01:43:04,VALID,1003.93,VALID,0,VALID,92.6985,VALID,0.100563,VALID,24.9476,VALID,47,VALID,0.269531,
2009-05-30, 01:44:04,VALID,1003.89,VALID,0,VALID,92.7519,VALID,0.100563,VALID,25.0079,VALID,47,VALID,0.204688,
2009-05-30, 01:45:04,VALID,1003.89,VALID,0,VALID,92.729,VALID,0.100563,VALID,25.006,VALID,46,VALID,0.354297,
2009-05-30, 01:46:04,VALID,1003.89,VALID,0,VALID,92.7443,VALID,0.100563,VALID,25.0663,VALID,39,VALID,0.288281,
2009-05-30, 01:47:04,VALID,1003.85,VALID,0,VALID,92.7672,VALID,0.100563,VALID,25.0839,VALID,39,VALID,0.325391,
2009-05-30, 01:48:04,VALID,1003.82,VALID,0,VALID,92.6756,VALID,0.100563,VALID,25.1229,VALID,39,VALID,0,
2009-05-30, 01:49:04,VALID,1003.8,VALID,0,VALID,92.6451,VALID,0.100563,VALID,25.1618,VALID,39,VALID,0.208594,
2009-05-30, 01:50:04,VALID,1003.8,VALID,0,VALID,92.5002,VALID,0.100563,VALID,25.1813,VALID,39,VALID,0.148828,
2009-05-30, 01:51:04,VALID,1003.81,VALID,0,VALID,92.3171,VALID,0.100563,VALID,25.1423,VALID,39,VALID,0.251172,
2009-05-30, 01:52:04,VALID,1003.81,VALID,0,VALID,92.2103,VALID,0.100563,VALID,25.1034,VALID,39,VALID,0,
2009-05-30, 01:53:04,VALID,1003.81,VALID,0,VALID,92.2637,VALID,0.100563,VALID,25.0644,VALID,39,VALID,0.159766,
2009-05-30, 01:54:04,VALID,1003.8,VALID,0,VALID,92.2255,VALID,0.100563,VALID,25.0431,VALID,39,VALID,0,
2009-05-30, 01:55:04,VALID,1003.78,VALID,0,VALID,92.2332,VALID,0.100563,VALID,25.0255,VALID,39,VALID,0.491797,
2009-05-30, 01:56:04,VALID,1003.73,VALID,0,VALID,92.3552,VALID,0.100563,VALID,24.9866,VALID,39,VALID,0.330859,
2009-05-30, 01:57:04,VALID,1003.73,VALID,0,VALID,92.2942,VALID,0.100563,VALID,24.9476,VALID,39,VALID,0.488281,
2009-05-30, 01:58:04,VALID,1003.74,VALID,0,VALID,92.3476,VALID,0.100563,VALID,24.9282,VALID,39,VALID,0.2375,
2009-05-30, 01:59:04,VALID,1003.71,VALID,0,VALID,92.5154,VALID,0.100563,VALID,24.9087,VALID,39,VALID,0.275,
2009-05-30, 02:00:04,VALID,1003.72,VALID,0,VALID,92.6375,VALID,0.100563,VALID,24.9282,VALID,39,VALID,0.0839844,
2009-05-30, 02:01:04,VALID,1003.72,VALID,0,VALID,92.607,VALID,0.100563,VALID,24.8892,VALID,39,VALID,0,
2009-05-30, 02:02:04,VALID,1003.7,VALID,0,VALID,92.6451,VALID,0.100563,VALID,24.8697,VALID,39,VALID,0,
2009-05-30, 02:03:04,VALID,1003.71,VALID,0,VALID,92.6528,VALID,0.100563,VALID,24.8503,VALID,39,VALID,0,
2009-05-30, 02:04:04,VALID,1003.71,VALID,0,VALID,92.6222,VALID,0.100563,VALID,24.8308,VALID,39,VALID,0,
2009-05-30, 02:05:04,VALID,1003.71,VALID,0,VALID,92.5993,VALID,0.100563,VALID,24.7724,VALID,39,VALID,0.138281,
2009-05-30, 02:06:04,VALID,1003.68,VALID,0,VALID,92.607,VALID,0.100563,VALID,24.7548,VALID,39,VALID,0.41875,
2009-05-30, 02:07:04,VALID,1003.72,VALID,0,VALID,92.607,VALID,0,VALID,24.6945,VALID,39,VALID,0.382422,
2009-05-30, 02:08:04,VALID,1003.72,VALID,0,VALID,92.7214,VALID,0.100563,VALID,24.6556,VALID,39,VALID,0.380859,
2009-05-30, 02:09:04,VALID,1003.7,VALID,0,VALID,92.7748,VALID,0.100563,VALID,24.6166,VALID,39,VALID,0.523438,
2009-05-30, 02:10:04,VALID,1003.72,VALID,0,VALID,92.9961,VALID,0.100563,VALID,24.6166,VALID,38,VALID,0.375,
2009-05-30, 02:11:04,VALID,1003.71,VALID,0,VALID,93.0189,VALID,0,VALID,24.5972,VALID,38,VALID,0.191797,
2009-05-30, 02:12:04,VALID,1003.69,VALID,0,VALID,93.1486,VALID,0.100563,VALID,24.5972,VALID,38,VALID,0.414453,
2009-05-30, 02:13:04,VALID,1003.7,VALID,0,VALID,93.6521,VALID,0,VALID,24.714,VALID,22,VALID,0.632813,
2009-05-30, 02:14:04,VALID,1003.7,VALID,0,VALID,93.8123,VALID,0.100563,VALID,24.8132,VALID,9,VALID,0.567578,
2009-05-30, 02:15:04,VALID,1003.69,VALID,0,VALID,93.7818,VALID,0,VALID,24.8697,VALID,1,VALID,0.876953,
2009-05-30, 02:16:04,VALID,1003.69,VALID,0,VALID,93.5987,VALID,0,VALID,24.9087,VALID,12,VALID,0.434766,
2009-05-30, 02:17:04,VALID,1003.7,VALID,0,VALID,93.4843,VALID,0,VALID,24.9087,VALID,12,VALID,0.435937,
2009-05-30, 02:18:04,VALID,1003.7,VALID,0,VALID,93.3775,VALID,0.100563,VALID,24.9263,VALID,12,VALID,0.402344,
2009-05-30, 02:19:04,VALID,1003.72,VALID,0,VALID,93.2631,VALID,0.100563,VALID,24.9476,VALID,12,VALID,0.412891,
2009-05-30, 02:20:04,VALID,1003.73,VALID,0,VALID,93.1486,VALID,0.100563,VALID,24.9068,VALID,12,VALID,0.422656,
2009-05-30, 02:21:04,VALID,1003.74,VALID,0,VALID,93.2402,VALID,0.100563,VALID,24.9671,VALID,12,VALID,0.1375,
2009-05-30, 02:22:04,VALID,1003.77,VALID,0,VALID,93.202,VALID,0,VALID,24.9671,VALID,21,VALID,0.394531,
2009-05-30, 02:23:04,VALID,1003.8,VALID,0,VALID,93.08,VALID,0.100563,VALID,24.9671,VALID,21,VALID,0.392578,
2009-05-30, 02:24:04,VALID,1003.82,VALID,0,VALID,93.0113,VALID,0.100563,VALID,24.9476,VALID,21,VALID,0,
2009-05-30, 02:25:04,VALID,1003.82,VALID,0,VALID,92.9503,VALID,0.100563,VALID,24.9476,VALID,21,VALID,0,
2009-05-30, 02:26:04,VALID,1003.81,VALID,0,VALID,92.9655,VALID,0.100563,VALID,24.9282,VALID,21,VALID,0,
2009-05-30, 02:27:04,VALID,1003.85,VALID,0,VALID,92.9198,VALID,0,VALID,24.9282,VALID,21,VALID,0.335547,
2009-05-30, 02:28:04,VALID,1003.85,VALID,0,VALID,92.8435,VALID,0.100563,VALID,24.8679,VALID,21,VALID,0.384375,
2009-05-30, 02:29:04,VALID,1003.84,VALID,0,VALID,92.7519,VALID,0.100563,VALID,24.8308,VALID,21,VALID,0.384375,
2009-05-30, 02:30:04,VALID,1003.85,VALID,0,VALID,92.6909,VALID,0,VALID,24.7937,VALID,21,VALID,0.124609,
2009-05-30, 02:31:04,VALID,1003.89,VALID,0,VALID,92.8053,VALID,0,VALID,24.7335,VALID,21,VALID,0.423438,
2009-05-30, 02:32:04,VALID,1003.89,VALID,0,VALID,92.8435,VALID,0,VALID,24.6945,VALID,21,VALID,0.173047,
2009-05-30, 02:33:04,VALID,1003.93,VALID,0,VALID,92.9198,VALID,0,VALID,24.675,VALID,21,VALID,0,
2009-05-30, 02:34:04,VALID,1003.91,VALID,0,VALID,93.2097,VALID,0.100563,VALID,24.7335,VALID,36,VALID,0.407031,
2009-05-30, 02:35:04,VALID,1003.94,VALID,0,VALID,93.2936,VALID,0,VALID,24.7335,VALID,36,VALID,0.24375,
2009-05-30, 02:36:04,VALID,1003.97,VALID,0,VALID,93.3088,VALID,0,VALID,24.7335,VALID,37,VALID,0.159766,
2009-05-30, 02:37:04,VALID,1003.99,VALID,0,VALID,93.4614,VALID,0.100563,VALID,24.7919,VALID,37,VALID,0.365625,
2009-05-30, 02:38:04,VALID,1004,VALID,0,VALID,93.469,VALID,0.100563,VALID,24.8132,VALID,37,VALID,0.320313,
2009-05-30, 02:39:04,VALID,1004.02,VALID,0,VALID,93.4462,VALID,0.100563,VALID,24.7919,VALID,37,VALID,0.0695312,
2009-05-30, 02:40:04,VALID,1004.03,VALID,0,VALID,93.4233,VALID,0,VALID,24.8132,VALID,37,VALID,0.0832031,
2009-05-30, 02:41:04,VALID,1004.03,VALID,0,VALID,93.4538,VALID,0.100563,VALID,24.7919,VALID,37,VALID,0.158203,
2009-05-30, 02:42:04,VALID,1004.03,VALID,0,VALID,93.4767,VALID,0,VALID,24.8327,VALID,37,VALID,0.184375,
2009-05-30, 02:43:04,VALID,1004.06,VALID,0,VALID,93.4614,VALID,0,VALID,24.7724,VALID,37,VALID,0.346094,
2009-05-30, 02:44:04,VALID,1004.08,VALID,0,VALID,93.3699,VALID,0,VALID,24.7529,VALID,37,VALID,0.305859,
2009-05-30, 02:45:04,VALID,1004.07,VALID,0,VALID,93.3088,VALID,0,VALID,24.7353,VALID,37,VALID,0.339844,
2009-05-30, 02:46:04,VALID,1004.08,VALID,0,VALID,93.3394,VALID,0,VALID,24.675,VALID,37,VALID,0.338672,
2009-05-30, 02:47:04,VALID,1004.07,VALID,0,VALID,93.408,VALID,0,VALID,24.675,VALID,37,VALID,0.265625,
2009-05-30, 02:48:04,VALID,1004.08,VALID,0,VALID,93.4004,VALID,0,VALID,24.638,VALID,37,VALID,0.558984,
2009-05-30, 02:49:04,VALID,1004.06,VALID,0,VALID,93.4004,VALID,0,VALID,24.6398,VALID,37,VALID,0.510938,
2009-05-30, 02:50:04,VALID,1004.05,VALID,0,VALID,93.4919,VALID,0,VALID,24.5777,VALID,37,VALID,0.600781,
2009-05-30, 02:51:04,VALID,1004.06,VALID,0,VALID,93.4919,VALID,0,VALID,24.5601,VALID,37,VALID,0.620313,
2009-05-30, 02:52:04,VALID,1004.06,VALID,0,VALID,93.5301,VALID,0,VALID,24.5193,VALID,37,VALID,0.593359,
2009-05-30, 02:53:04,VALID,1004.06,VALID,0,VALID,93.7284,VALID,0,VALID,24.5601,VALID,37,VALID,0.575781,
2009-05-30, 02:54:04,VALID,1004.05,VALID,0,VALID,93.6903,VALID,0,VALID,24.5406,VALID,37,VALID,0.323047,
2009-05-30, 02:55:04,VALID,1004.07,VALID,0,VALID,93.6903,VALID,0,VALID,24.4804,VALID,37,VALID,0.180078,
2009-05-30, 02:56:04,VALID,1004.08,VALID,0,VALID,93.7437,VALID,0,VALID,24.4804,VALID,37,VALID,0.540234,
2009-05-30, 02:57:04,VALID,1004.06,VALID,0,VALID,93.8505,VALID,0,VALID,24.4804,VALID,36,VALID,0.545703,
2009-05-30, 02:58:04,VALID,1004.08,VALID,0,VALID,94.0336,VALID,0,VALID,24.599,VALID,35,VALID,0.458594,
2009-05-30, 02:59:04,VALID,1004.08,VALID,0,VALID,94.0717,VALID,0,VALID,24.6185,VALID,36,VALID,0.311719,
2009-05-30, 03:00:04,VALID,1004.08,VALID,0,VALID,94.2396,VALID,0,VALID,24.6945,VALID,25,VALID,1.10625,
2009-05-30, 03:01:04,VALID,1004.06,VALID,0,VALID,94.3158,VALID,0,VALID,24.7335,VALID,26,VALID,0.261719,
2009-05-30, 03:02:04,VALID,1004.08,VALID,0,VALID,94.2396,VALID,0,VALID,24.7529,VALID,26,VALID,0.311328,
2009-05-30, 03:03:04,VALID,1004.1,VALID,0,VALID,94.2624,VALID,0,VALID,24.8132,VALID,24,VALID,0.576563,
2009-05-30, 03:04:04,VALID,1004.08,VALID,0,VALID,94.3006,VALID,0,VALID,24.8697,VALID,25,VALID,0.429297,
2009-05-30, 03:05:04,VALID,1004.11,VALID,0,VALID,94.1862,VALID,0,VALID,24.8697,VALID,25,VALID,0,
2009-05-30, 03:06:04,VALID,1004.13,VALID,0,VALID,94.1099,VALID,0,VALID,24.8892,VALID,25,VALID,0,
2009-05-30, 03:07:04,VALID,1004.11,VALID,0,VALID,94.1709,VALID,0,VALID,24.9087,VALID,25,VALID,0.0917969,
2009-05-30, 03:08:04,VALID,1004.12,VALID,0,VALID,94.1328,VALID,0,VALID,24.9495,VALID,27,VALID,0.411328,
2009-05-30, 03:09:04,VALID,1004.12,VALID,0,VALID,94.1862,VALID,0,VALID,24.9866,VALID,26,VALID,0.274609,
2009-05-30, 03:10:04,VALID,1004.13,VALID,0,VALID,94.0717,VALID,0,VALID,25.0255,VALID,26,VALID,0.194531,
2009-05-30, 03:11:04,VALID,1004.14,VALID,0,VALID,94.0641,VALID,0,VALID,25.0663,VALID,11,VALID,0.130078,
2009-05-30, 03:12:04,VALID,1004.18,VALID,0,VALID,93.881,VALID,0,VALID,25.0469,VALID,11,VALID,0.0753906,
2009-05-30, 03:13:04,VALID,1004.17,VALID,0,VALID,93.7818,VALID,0,VALID,25.0274,VALID,11,VALID,0.247656,
2009-05-30, 03:14:04,VALID,1004.17,VALID,0,VALID,93.6903,VALID,0,VALID,24.9671,VALID,11,VALID,0.292188,
2009-05-30, 03:15:04,VALID,1004.16,VALID,0,VALID,93.614,VALID,0,VALID,24.969,VALID,11,VALID,0.377344,
2009-05-30, 03:16:04,VALID,1004.16,VALID,0,VALID,93.5072,VALID,0,VALID,24.93,VALID,11,VALID,0.459766,
2009-05-30, 03:17:04,VALID,1004.16,VALID,0,VALID,93.4385,VALID,0,VALID,24.8716,VALID,11,VALID,0.298828,
2009-05-30, 03:18:04,VALID,1004.13,VALID,0,VALID,93.5072,VALID,0,VALID,24.8308,VALID,15,VALID,0.374609,
2009-05-30, 03:19:04,VALID,1004.11,VALID,0,VALID,93.5453,VALID,0,VALID,24.8522,VALID,15,VALID,0.429297,
2009-05-30, 03:20:04,VALID,1004.07,VALID,0,VALID,93.5148,VALID,0,VALID,24.7937,VALID,15,VALID,0.286328,
2009-05-30, 03:21:04,VALID,1004.09,VALID,0,VALID,93.4996,VALID,0,VALID,24.7548,VALID,15,VALID,0.139844,
2009-05-30, 03:22:04,VALID,1004.06,VALID,0,VALID,93.4767,VALID,0,VALID,24.7353,VALID,15,VALID,0.272266,
2009-05-30, 03:23:04,VALID,1004.03,VALID,0,VALID,93.5606,VALID,0,VALID,24.7159,VALID,56,VALID,0.071875,
2009-05-30, 03:24:04,VALID,1004.02,VALID,0,VALID,93.6369,VALID,0,VALID,24.7159,VALID,56,VALID,0.239453,
2009-05-30, 03:25:04,VALID,1004.01,VALID,0,VALID,93.7055,VALID,0,VALID,24.7159,VALID,56,VALID,0.200391,
2009-05-30, 03:26:04,VALID,1003.97,VALID,0,VALID,93.7208,VALID,0,VALID,24.7159,VALID,56,VALID,0,
2009-05-30, 03:27:04,VALID,1003.97,VALID,0,VALID,93.7513,VALID,0,VALID,24.675,VALID,56,VALID,0.296094,
2009-05-30, 03:28:04,VALID,1003.97,VALID,0,VALID,93.7742,VALID,0,VALID,24.7159,VALID,56,VALID,0.134375,
2009-05-30, 03:29:04,VALID,1003.94,VALID,0,VALID,93.7818,VALID,0,VALID,24.675,VALID,56,VALID,0.274219,
2009-05-30, 03:30:04,VALID,1003.94,VALID,0,VALID,93.8352,VALID,0,VALID,24.6964,VALID,56,VALID,0.572266,
2009-05-30, 03:31:04,VALID,1003.92,VALID,0,VALID,93.8581,VALID,0,VALID,24.6964,VALID,56,VALID,0.135937,
2009-05-30, 03:32:04,VALID,1003.89,VALID,0,VALID,93.9268,VALID,0,VALID,24.714,VALID,56,VALID,0.00117188,
2009-05-30, 03:33:04,VALID,1003.86,VALID,0,VALID,93.9191,VALID,0,VALID,24.7353,VALID,56,VALID,0.170703,
2009-05-30, 03:34:04,VALID,1003.87,VALID,0,VALID,94.0107,VALID,0,VALID,24.7335,VALID,56,VALID,0.397656,
2009-05-30, 03:35:04,VALID,1003.84,VALID,0,VALID,94.0565,VALID,0,VALID,24.7529,VALID,56,VALID,0.199219,
2009-05-30, 03:36:04,VALID,1003.84,VALID,0,VALID,94.0183,VALID,0,VALID,24.7529,VALID,56,VALID,0.278906,
2009-05-30, 03:37:04,VALID,1003.84,VALID,0,VALID,94.0031,VALID,0,VALID,24.7529,VALID,56,VALID,0.00703125,
2009-05-30, 03:38:04,VALID,1003.83,VALID,0,VALID,94.0107,VALID,0,VALID,24.7919,VALID,56,VALID,0.136328,
2009-05-30, 03:39:04,VALID,1003.8,VALID,0,VALID,94.0259,VALID,0,VALID,24.8132,VALID,56,VALID,0.185156,
2009-05-30, 03:40:04,VALID,1003.83,VALID,0,VALID,93.9878,VALID,0,VALID,24.7919,VALID,56,VALID,0.134375,
2009-05-30, 03:41:04,VALID,1003.82,VALID,0,VALID,93.9954,VALID,0,VALID,24.8132,VALID,57,VALID,0.266406,
2009-05-30, 03:42:04,VALID,1003.81,VALID,0,VALID,93.9344,VALID,0,VALID,24.7919,VALID,57,VALID,0.403906,
2009-05-30, 03:43:04,VALID,1003.8,VALID,0,VALID,93.9497,VALID,0.100563,VALID,24.7919,VALID,57,VALID,0.260547,